Weather History for KDLH - January, 2013

Change the Weather History Date:

Monday, January 7, 2013

  Actual Average Record
Temperature  
Mean Temperature 27 °F 10 °F  
Max Temperature 39 °F 19 °F 46 °F (2003)
Min Temperature 14 °F 2 °F -36 °F (1912)
Degree Days  
Heating Degree Days 38 55  
Month to date heating degree days 331 382  
Since 1 July heating degree days 3803 4151  
Cooling Degree Days 0 0  
Month to date cooling degree days 0 0  
Year to date cooling degree days 0 0  
Moisture  
Dew Point 18 °F    
Average Humidity 68    
Maximum Humidity 81    
Minimum Humidity 54    
Precipitation  
Precipitation 0.00 in 0.03 in 0.70 in (1989)
Month to date precipitation T 0.25  
Year to date precipitation T 0.25  
Snow  
Snow 0.00 in 0.70 in 11.60 in (1989)
Month to date snowfall 0.3 4.7  
Since 1 July snowfall 24.8 38.5  
Snow Depth 5.00 in    
Sea Level Pressure  
Sea Level Pressure 29.83 in    
Wind  
Wind Speed 16 mph (WSW)    
Max Wind Speed 23 mph    
Max Gust Speed 37 mph    
Visibility 10 miles    
Events      
T = Trace of Precipitation, MM = Missing Value Source: NWS Daily Summary

Daily Weather History Graph

Daily Weather History Graph

Search for Another Location

Airport or City:

Trip Planner

Search our weather history database for the weather conditions in past years. The results will help you decide how hot, cold, wet, or windy it might be!

Date:

Astronomy

Jan. 07, 2013 Rise Set
Actual Time 7:53 AM CST 4:37 PM CST
Civil Twilight 7:18 AM CST 5:12 PM CST
Nautical Twilight 6:40 AM CST 5:50 PM CST
Astronomical Twilight 6:03 AM CST 6:27 PM CST
Moon 3:13 AM CST (1/7) 12:52 PM CST (1/7)
Length of Visible Light 9h 54m
Length of Day
8h 44m
Waning Crescent, 22% of the Moon is Illuminated
Jan 7
Waning Crescent
Jan 11
New
Jan 18
First Quarter
Jan 26
Full
Feb 3
Last Quarter

Hourly Weather History & Observations

Time (CST) Temp. Windchill Dew Point Humidity Pressure Visibility Wind Dir Wind Speed Gust Speed Precip Events Conditions
12:55 AM 15.1 °F 1.1 °F 7.0 °F 70% 29.97 in 10.0 mi South 12.7 mph - N/A   Clear
1:55 AM 16.0 °F 1.7 °F 9.0 °F 74% 29.90 in 10.0 mi South 13.8 mph - N/A   Clear
2:55 AM 17.1 °F 2.5 °F 10.0 °F 74% 29.86 in 10.0 mi South 15.0 mph - N/A   Clear
3:55 AM 17.1 °F 4.3 °F 10.9 °F 77% 29.83 in 10.0 mi SSW 11.5 mph - N/A   Clear
4:55 AM 19.0 °F 6.1 °F 12.9 °F 77% 29.82 in 10.0 mi SW 12.7 mph - N/A   Clear
5:55 AM 21.0 °F 5.4 °F 15.1 °F 78% 29.79 in 10.0 mi SW 20.7 mph 25.3 mph N/A   Clear
6:55 AM 21.9 °F 7.3 °F 16.0 °F 78% 29.79 in 10.0 mi SW 18.4 mph 29.9 mph N/A   Clear
7:55 AM 23.0 °F 8.7 °F 17.1 °F 78% 29.78 in 10.0 mi SW 18.4 mph 27.6 mph N/A   Mostly Cloudy
8:55 AM 24.1 °F 9.8 °F 18.0 °F 77% 29.80 in 10.0 mi WSW 19.6 mph 26.5 mph N/A   Mostly Cloudy
9:55 AM 25.0 °F 11.7 °F 18.0 °F 75% 29.80 in 10.0 mi WSW 17.3 mph - N/A   Scattered Clouds
10:55 AM 28.9 °F 16.5 °F 19.9 °F 69% 29.81 in 10.0 mi WSW 18.4 mph - N/A   Partly Cloudy
11:55 AM 33.1 °F 21.9 °F 21.9 °F 64% 29.77 in 10.0 mi WSW 18.4 mph 26.5 mph N/A   Partly Cloudy
12:55 PM 35.6 °F 25.5 °F 21.2 °F 56% 29.69 in 10.0 mi WSW 17.3 mph 25.3 mph N/A   Partly Cloudy
1:55 PM 37.9 °F 27.6 °F 23.0 °F 55% 29.76 in 10.0 mi WSW 20.7 mph - N/A   Partly Cloudy
2:55 PM 37.9 °F 27.3 °F 23.0 °F 55% 29.77 in 10.0 mi WSW 21.9 mph - N/A   Partly Cloudy
3:55 PM 37.0 °F 25.9 °F 23.0 °F 57% 29.79 in 10.0 mi WSW 23.0 mph 28.8 mph N/A   Partly Cloudy
4:55 PM 35.6 °F 25.2 °F 21.2 °F 56% 29.74 in 10.0 mi WSW 18.4 mph 25.3 mph N/A   Partly Cloudy
5:55 PM 35.1 °F 24.5 °F 21.0 °F 57% 29.83 in 10.0 mi WSW 18.4 mph 28.8 mph N/A   Partly Cloudy
6:55 PM 33.1 °F 22.6 °F 21.0 °F 61% 29.86 in 10.0 mi WSW 16.1 mph - N/A   Clear
7:55 PM 30.0 °F 19.5 °F 19.9 °F 66% 29.87 in 10.0 mi West 13.8 mph - N/A   Clear
8:55 PM 30.9 °F 20.7 °F 19.9 °F 64% 29.89 in 10.0 mi West 13.8 mph - N/A   Clear
9:55 PM 30.0 °F 21.1 °F 19.9 °F 66% 29.91 in 10.0 mi West 10.4 mph - N/A   Clear
10:55 PM 28.0 °F 19.3 °F 19.9 °F 72% 29.92 in 10.0 mi West 9.2 mph - N/A   Clear
11:55 PM 21.9 °F 11.7 °F 17.1 °F 82% 29.94 in 10.0 mi West 9.2 mph - N/A   Clear